Location: College Park
(38.9810°N, 76.9370°W)
Time: 12:21:42
(UTC-05:00)

ISS - Pass Details

Date: 18 November 2017
Orbit: 401 x 407 km, 51.6° (Epoch: 18 November)

Event Time Altitude Azimuth Distance (km) Brightness Sun altitude
Exits shadow 05:42:08 25° 253° (WSW) 864 -2.7 -14.1°
Maximum altitude 05:42:55 28° 226° (SW) 793 -2.7 -13.9°
Drops below altitude 10° 05:45:44 10° 166° (SSE) 1,443 -0.7 -13.4°
Sets 05:47:58 0° 154° (SSE) 2,298 0.6 -13.0°
